SEASAT 1

导读

SEASAT 1是美国于1978年6月27日发射的全球首颗海洋遥感卫星,由NASA喷气动力实验室研制。它搭载多类观测载荷,核心任务是验证海洋卫星遥感技术可行性,为后续业务化海洋卫星设计探明需求。卫星入轨运行仅106天就因电路短路终止任务,不过它配置的仪器覆盖了现代海洋卫星的主流探测类型,为全球海洋卫星发展奠定了关键技术基础。

基本信息
目录编号:
10967
目录名称:
SEASAT 1
国际标识:
1978-064A
轨道中心:
EARTH
卫星名称:
SEASAT 1
卫星全名:
--
卫星状态:
在轨 (已飞行17608 天)
发射日期:
1978-06-27 UTC
国别 :
美国 (US)
星等 :
--
该卫星已列入 空间交会检测服务 Space Conjunction Data Service (SCDS) ,当前飞行风险评估等级: 无高风险
轨道信息
数据来源 国际轨道数据 AOE轨道数据
星历时间 2026-09-10T23:51:51+0800
15小时前
查看轨道信息
2026-09-06T03:00:00+0800
5天前
查看轨道信息
半长轴 7115.945km 7115.952km
偏心率 0.0002105 0.0002071
轨道倾角 108.008° 108.006°
近地点辐角 299.976° 305.157°
升交点赤经 153.706° 143.488°
平近点角 60.118° 270.788°
近地点 736.31km 736.341km
远地点 739.306km 739.289km
周期 99.565分钟 99.566分钟
每日圈数 14.462853 14.462829
详细信息
使用方式:
暂无
2D轨道图
3D轨道图
轨道高度分析图
轨道倾角分析图
轨道综合分析图
查看轨道综合分析图
交会数据列表
事件ID 空间交会对象 最接近时刻(TCA) 交会距离 交会风险概率(CRP) 交会风险指数(CRI) 操作
CDM_260906-033301-096703-402128
SEASAT 1 (10967)
2026-09-06T
03:33:27+0000
1.667 km
极远距离
4.765558E-6 低风险 0.49
CDM_260911-103601-096703-434429
SEASAT 1 (10967)
2026-09-11T
10:36:16+0000
2.165 km
极远距离
2.377661E-6 低风险 0.43
与全量物体交会距离演化趋势
与全量物体交会风险概率演化趋势